This is the latest recevied weather packets stored in our database for station/object N0QV. If no packets are shown the sender has not sent any weather packets the latest 10 day(s).
| Time | Temp. | Humidity | Pressure | Rain* | Wind** | Luminosity | Snow |
|---|---|---|---|---|---|---|---|
| 1777962409 | 6.11° C | 52% | 1008.3 hPa | 0 mm | - | 0 W/m² | - |
| 1777962107 | 6.11° C | 51% | 1008.2 hPa | 0 mm | - | 0 W/m² | - |
| 1777961804 | 6.11° C | 51% | 1008.3 hPa | 0 mm | - | 0 W/m² | - |
| 1777961502 | 6.11° C | 51% | 1008 hPa | 0 mm | - | 0 W/m² | - |
| 1777961199 | 6.67° C | 50% | 1008.2 hPa | 0 mm | - | 0 W/m² | - |
| 1777960896 | 6.67° C | 50% | 1008.1 hPa | 0 mm | - | 0 W/m² | - |
| 1777960591 | 6.67° C | 49% | 1008.1 hPa | 0 mm | - | 0 W/m² | - |
| 1777960288 | 6.67° C | 50% | 1008.3 hPa | 0 mm | - | 0 W/m² | - |
| 1777959986 | 6.67° C | 50% | 1008.1 hPa | 0 mm | - | 0 W/m² | - |
| 1777959684 | 6.67° C | 50% | 1008.3 hPa | 0 mm | - | 0 W/m² | - |
| 1777959381 | 6.67° C | 50% | 1008.2 hPa | 0 mm | - | 0 W/m² | - |
| 1777959077 | 6.67° C | 50% | 1008.2 hPa | 0 mm | - | 0 W/m² | - |
| 1777958774 | 6.67° C | 50% | 1008.2 hPa | 0 mm | - | 0 W/m² | - |
| 1777958472 | 6.11° C | 50% | 1008.2 hPa | 0 mm | - | 0 W/m² | - |
| 1777958168 | 6.11° C | 51% | 1008 hPa | 0 mm | - | 0 W/m² | - |
| 1777957867 | 6.11° C | 52% | 1008.1 hPa | 0 mm | - | 0 W/m² | - |
| 1777957564 | 5.56° C | 53% | 1008 hPa | 0 mm | - | 0 W/m² | - |
| 1777957262 | 6.11° C | 54% | 1008.1 hPa | 0 mm | - | 0 W/m² | - |
| 1777956957 | 6.11° C | 51% | 1008.1 hPa | 0 mm | - | 0 W/m² | - |
| 1777956655 | 6.67° C | 49% | 1007.9 hPa | 0 mm | - | 0 W/m² | - |
| 1777956352 | 6.67° C | 48% | 1007.8 hPa | 0 mm | - | 0 W/m² | - |
| 1777956049 | 7.22° C | 47% | 1008 hPa | 0 mm | - | 0 W/m² | - |
| 1777955744 | 7.22° C | 46% | 1008 hPa | 0 mm | - | 0 W/m² | - |
| 1777955442 | 7.22° C | 46% | 1007.9 hPa | 0 mm | - | 0 W/m² | - |
| 1777955137 | 7.78° C | 46% | 1007.7 hPa | 0 mm | - | 0 W/m² | - |
* Rain latest hour (hover to see other rain measurements)
** Current wind speed in m/s (hover to see current wind gust speed)